OneWeb SL0509

operational
NORAD ID: 54127 Int'l Des: 2022-138 Owner: ONEWEBN Country: UK Constellation: oneweb
LEOCIRCULARPOLARONEWEB_TYPE

About OneWeb SL0509

Description loading...

Live Position

Loading 3D Globe...

Upcoming Passes

Altitude History

Altitude vs Time

uPlot chart will show altitude changes over time

Two-Line Element Set

1 54127U 22138Q 25306.39972675 -.00000337 00000-0 -87431-3 0 9990
2 54127 87.9246 350.0683 0001972 100.2279 259.9076 13.19727923146892
Epoch: Nov 2, 2025 • Age: 37 hours

Current Status

Altitude 1198.0 km
Velocity 7.25 km/s
Sub-Earth Point -30.88°S, 141.8°E
Launch Date Oct 22, 2022
Age 3 years
Type internet

Technical Details

Classification Payload
Mass 148.00 kg
Dry Mass 140.00 kg
Total Mass 148.00 kg
Length 1.30 m
Diameter 1.00 m
Span 5.00 m
Shape Trapezoid+2 pan
Manufacturer ONEWUS
Bus Type ARROW
Phase Status In Orbit
Owner/State ONEWEBN/UK

Large Constellations

Loading constellations...